Terminal Aerodrome Forecast
Issued by NWS Austin/San Antonio, TX

Home | Current Version | Previous Version | Text Only | Print | Product List | Glossary On
Versions: 1 2 3 4 5 6 7 8 9 10 11 12 13 14 15 16 17 18 19
000
FTUS44 KEWX 251744
TAFSAT
TAF
KSAT 251744Z 2518/2624 18011KT P6SM OVC020
     FM251830 18012G22KT P6SM SCT025 BKN040
     FM252300 15012KT P6SM SCT250
     FM260500 16012KT P6SM BKN012
     FM260800 18012KT 6SM BR OVC008
     FM261400 28020G30KT P6SM SKC=

USA.gov is the U.S. government's official web portal to all federal, state and local government web resources and services.